Microfiche records prior to 2006 have not been completely digitized and may not be available yet on PRO. If you cannot find what you are looking for please submit a records request.

PRO is currently experiencing an outage. Some documents and records may not be available on PRO momentarily. We apologize for the inconvenience and are working to restore full access.

Parcel Search
 

Special Development Requests & Requirements

Date - 09/06/2026 4:03 p.m.
Total Number Of Special Development Permits - (2)
Activity Number Status Apply Date Expired Date Type Description
H000013925 Closed N/A
T09SA00088 Complete N/A

Permits

Parcel Number - 12904157A
Date - 09/06/2026 4:03 p.m.
Total Number Of Permits - (40)
Permit Permit Status Entered Date Expired Date Unit Type Description
T08AN00498 Issued 05/14/2008 N/A ADDRNEW
T08BU01755 Final 09/30/2008 02/07/2011 GRADING GRADING:1259CY CUT 6343CY FILL
T08CM01561 C of o 05/14/2008 02/07/2011 03 COMBO NEW APRTMENT BUILDING
T08CM01562 C of o 05/14/2008 02/07/2011 04 COMBO NEW APARTMENT BUILDING
T08CM01563 C of o 05/14/2008 02/07/2011 05 COMBO NEW APARTMENT BUILDING #3
T08CM01564 C of o 05/14/2008 02/07/2011 06 COMBO NEW APARTMENT BUILDING #4
T08CM01565 C of o 05/14/2008 02/07/2011 01 COMBO NEW APARTMENT BUILDING #5
T08CM01566 C of o 05/14/2008 02/07/2011 02 COMBO NEW APARTMENT BUILDING #6
T08PL01792 Final 12/12/2008 12/14/2010 PLUMB PRIVATE SEWER
T09BU01491 Final 10/02/2009 02/02/2011 02 SPKLR Install 165 fire sprinklers
T09BU01496 Final 10/05/2009 05/16/2010 SPKLR INSTALL 800 LF OF 6 INCH UNDERGROUND FIRE LINE.
T09BU01603 Final 10/28/2009 02/02/2011 01 SPKLR Install 726 fire sprinklers
T09CM02668 Closed 10/02/2009 04/03/2010 COMBO TEMP CONSTRUCTION TRAILER
T09EX00561 Closed 10/02/2009 12/01/2009 EXCAV EXCAVATION TO RECONSTRUCK 24' WIDE ENTRANCE PER APPROVED PLAN. IMPROVEMENTS TO CONSIST OF 80' OF ASPHALT AND VERTICAL CURB AND SIDEWALK.
T09EX00616 Closed 10/30/2009 12/29/2009 EXCAV TRENCHING 144'B ON OLSEN AV AND PLUMER AV
T09TUP0012 Closed 10/02/2009 11/23/2011 TUP TEMP USE PERMIT JOB SITE OFFICE & EQUIPMENT STORAGE YARD
T10BU01154 Final 07/21/2010 02/02/2011 01 BUILD FIRE ALARM
T10OT01764 Sign-pc 08/18/2010 N/A SIGN 18759
T10OT01865 Final 08/31/2010 05/04/2011 SIGN 18759
T11CM01422 Final 05/10/2011 03/14/2012 03 COMBO SOLAR COMMERCIAL HOT WATER 23UNITS
T11CM02151 Final 07/11/2011 04/14/2012 02 COMBO SOLAR WATER HEATER
T11CM02153 Final 07/11/2011 04/14/2012 02 COMBO SOLAR WATER HEATER
T11CM02154 Final 07/11/2011 04/14/2012 04 COMBO SOLAR WATER HEATER
T11CM02155 Final 07/11/2011 04/14/2012 04 COMBO SOLAR WATER HEATER
T11CM02156 Final 07/11/2011 04/14/2012 05 COMBO SOLAR WATER HEATER
T11CM02157 Final 07/11/2011 04/14/2012 05 COMBO SOLAR WATER HEATER
T11CM02158 Expired 07/11/2011 01/21/2012 06 COMBO SOLAR WATER HEATER
T11CM02159 Final 07/11/2011 04/14/2012 06 COMBO SOLAR WATER HEATER
T11CM02160 Final 07/11/2011 04/14/2012 01 COMBO SOLAR WATER HEATER
T11CM02161 Final 07/11/2011 04/14/2012 01 COMBO SOLAR WATER HEATER
T11CM02162 Final 07/11/2011 04/14/2012 01 COMBO SOLAR WATER HEATER
T11CM02163 Final 07/11/2011 04/14/2012 01 COMBO SOLAR WATER HEATER
T11CM02164 Final 07/11/2011 04/14/2012 01 COMBO SOLAR WATER HEATER
T11CM02165 Final 07/11/2011 04/14/2012 01 COMBO SOLAR WATER HEATER
T11CM02166 Final 07/11/2011 04/14/2012 01 COMBO SOLAR WATER HEATER
T11CM02167 Final 07/11/2011 04/14/2012 01 COMBO SOLAR WATER HEATER
T11CM02170 Final 07/11/2011 04/14/2012 01 COMBO SOLAR WATER HEATER
T11CM02171 Final 07/11/2011 04/14/2012 COMBO SOLAR WATER HEATER-LAUNDRY ROOM
T16RW01446 Expired 09/07/2016 10/09/2016 ROW (2) 5X5 BELLHOLES IN ASPHALT ALLEY IN REAR OF PROPERTY TO REPLACE GAS LINE
T20CM03496 Final 06/09/2020 06/08/2021 03 COMBO FIRE DAMAGE REPAIR

Code Enforcement

Parcel Number - 12904157A
Date - 09/06/2026 4:03 p.m.
Total Number Of Code Cases - 6
Case Number Case Status Entered Date Closed Date Unit Type Description
T08DV10697 Noverify 11/17/2008 N/A DNR_VIOL "YOUR CAP TEAM" N/W CORNER OF BROADWAY BLVD AND PLUMER.
T08FR04016 Field 10/28/2008 N/A FIREINSP test
T09DV04620 Referred 08/10/2009 N/A DNR_VIOL OVERGROWN WEEDS THROUGHOUT VACANT LOT
T10FR01884 Complete 09/08/2010 N/A FIREINSP FPI / COMPLAINT
T16DV03209 Complian 05/31/2016 N/A DNR_VIOL leaning saguaro on the corner of Broadway and Plumber
T20DV02033 Complian 03/30/2020 N/A DNR_VIOL FLOODED UNITS FRM SPRINKLER SYSTEM DISCHARGING